TimePDT,TemperatureF,Dew PointF,Humidity,Sea Level PressureIn,VisibilityMPH,Wind Direction,Wind SpeedMPH,Gust SpeedMPH,PrecipitationIn,Events,Conditions,WindDirDegrees,DateUTC
12:04 AM,53.6,51.8,94,29.76,10.0,SSW,8.1,-,0.00,,Overcast,200,2013-09-18 07:04:00
12:14 AM,53.6,50.0,88,29.76,10.0,SSW,9.2,-,0.00,,Overcast,200,2013-09-18 07:14:00
12:53 AM,52.0,50.0,93,29.75,10.0,West,8.1,-,0.00,,Mostly Cloudy,260,2013-09-18 07:53:00
1:53 AM,52.0,48.9,89,29.76,10.0,SW,3.5,-,N/A,,Overcast,220,2013-09-18 08:53:00
2:53 AM,51.1,48.9,92,29.77,10.0,SSW,8.1,-,N/A,,Overcast,210,2013-09-18 09:53:00
3:01 AM,51.8,50.0,94,29.79,10.0,SW,9.2,-,N/A,,Overcast,220,2013-09-18 10:01:00
3:15 AM,51.8,50.0,94,29.79,10.0,SSW,8.1,-,N/A,,Overcast,210,2013-09-18 10:15:00
3:53 AM,52.0,50.0,93,29.78,10.0,Calm,Calm,-,N/A,,Overcast,0,2013-09-18 10:53:00
4:53 AM,51.1,48.9,92,29.80,10.0,South,6.9,-,N/A,,Overcast,190,2013-09-18 11:53:00
5:53 AM,51.1,48.0,89,29.82,10.0,South,10.4,-,N/A,,Overcast,170,2013-09-18 12:53:00
6:45 AM,50.0,48.2,94,29.85,10.0,SSE,6.9,-,N/A,,Overcast,150,2013-09-18 13:45:00
6:53 AM,50.0,48.0,93,29.85,10.0,SSE,8.1,-,N/A,,Mostly Cloudy,150,2013-09-18 13:53:00
7:53 AM,50.0,48.0,93,29.87,7.0,South,10.4,-,0.00,Rain,Light Rain,170,2013-09-18 14:53:00
8:53 AM,52.0,48.0,86,29.88,10.0,South,10.4,-,0.00,,Overcast,170,2013-09-18 15:53:00
9:53 AM,55.0,46.9,74,29.90,10.0,South,11.5,-,N/A,,Scattered Clouds,190,2013-09-18 16:53:00
10:53 AM,57.9,46.9,67,29.91,10.0,SSW,10.4,-,N/A,,Overcast,200,2013-09-18 17:53:00
11:53 AM,59.0,46.0,62,29.92,10.0,SW,9.2,-,N/A,,Overcast,230,2013-09-18 18:53:00
12:53 PM,60.1,46.0,60,29.94,10.0,SSW,11.5,-,N/A,,Overcast,210,2013-09-18 19:53:00
1:53 PM,63.0,45.0,52,29.94,10.0,SW,12.7,-,0.00,,Scattered Clouds,220,2013-09-18 20:53:00
2:53 PM,64.9,43.0,45,29.94,10.0,SSW,11.5,-,N/A,,Clear,200,2013-09-18 21:53:00
3:15 PM,64.4,42.8,45,29.94,10.0,SW,12.7,18.4,N/A,Thunderstorm,Clear,220,2013-09-18 22:15:00
3:30 PM,64.4,42.8,45,29.95,10.0,SW,13.8,23.0,N/A,,Scattered Clouds,230,2013-09-18 22:30:00
3:53 PM,60.1,43.0,53,29.96,10.0,SW,16.1,-,N/A,,Partly Cloudy,220,2013-09-18 22:53:00
4:07 PM,60.8,44.6,55,29.96,10.0,South,11.5,21.9,N/A,,Clear,180,2013-09-18 23:07:00
4:53 PM,57.9,43.0,58,29.98,10.0,West,9.2,-,N/A,,Mostly Cloudy,260,2013-09-18 23:53:00
5:53 PM,60.1,39.9,47,29.99,10.0,West,13.8,20.7,0.01,,Overcast,260,2013-09-19 00:53:00
6:53 PM,55.9,43.0,62,30.00,10.0,Calm,Calm,-,N/A,,Scattered Clouds,0,2013-09-19 01:53:00
7:53 PM,53.1,46.0,77,30.03,10.0,SSE,4.6,-,N/A,,Overcast,160,2013-09-19 02:53:00
8:53 PM,48.9,43.0,80,30.05,10.0,Calm,Calm,-,N/A,,Partly Cloudy,0,2013-09-19 03:53:00
9:53 PM,43.0,39.9,89,30.07,10.0,Calm,Calm,-,N/A,,Clear,0,2013-09-19 04:53:00
10:53 PM,43.0,39.9,89,30.08,10.0,Calm,Calm,-,N/A,,Clear,0,2013-09-19 05:53:00
11:53 PM,44.1,39.9,85,30.09,10.0,ESE,3.5,-,N/A,,Clear,120,2013-09-19 06:53:00